Thompson, Ohio, United States (44086)
Lat: 41.69N, Lon: 81.05W
Wx Zone: OHZ013
Local Info
Past Weather Observations for Tuesday, August 19, 2014

NOTE: This archive is for the closest National Weather Service station to Thompson. Information may differ from the station used for current weather conditions.

Click here for Long-term Archive

Time Weather Temperature Dewpoint Humidity Pressure Winds Precip Visibility
23:53
Mostly Cloudy
64°F / 18°C 64°F / 18°C 100% 29.89 in
(1012 mb)
SSE 9.2 mph
(SSE 15 kph)
0.08 in
(2.03 mm)
10SM
22:53
Overcast
Light Rain
66°F / 19°C 64°F / 18°C 94% 29.92 in
(1013 mb)
SE 6.9 mph
(SE 11 kph)
0.07 in
(1.78 mm)
8SM
21:53
Overcast
Light Rain
66°F / 19°C 64°F / 18°C 94% 29.92 in
(1013 mb)
SE 5.8 mph
(SE 9 kph)
0.37 in
(9.40 mm)
7SM
21:34
Overcast
Light Rain
66°F / 19°C 64°F / 18°C 94% 29.92 in
(1013 mb)
Calm 0.33 in
(8.38 mm)
7SM
21:27
Overcast
Thunder Storms
64°F / 18°C 64°F / 18°C 100% 29.92 in
(1013 mb)
Calm 0.32 in
(8.13 mm)
3SM
21:07
Overcast
Thunder Storms
66°F / 19°C 64°F / 18°C 94% 29.92 in
(1013 mb)
WNW 5.8 mph
(WNW 9 kph)
0.14 in
(3.56 mm)
1 3/4SM
20:53
Overcast
Thunder Storms
68°F / 20°C 63°F / 17°C 83% 29.92 in
(1013 mb)
NW 15 mph
(NW 24 kph)
0.02 in
(0.51 mm)
7SM
20:50
Thunder Storms
70°F / 21°C 63°F / 17°C 78% 29.92 in
(1013 mb)
WNW 17.3 mph
(WNW 28 kph)
0.01 in
(0.25 mm)
9SM
19:53
Partly Cloudy
72°F / 22°C 66°F / 19°C 83% 29.83 in
(1010 mb)
SE 3.5 mph
(SE 6 kph)
- 10SM
18:53
Clear
75°F / 24°C 66°F / 19°C 74% 29.83 in
(1010 mb)
SE 3.5 mph
(SE 6 kph)
- 10SM
17:53
Clear
81°F / 27°C 64°F / 18°C 58% 29.83 in
(1010 mb)
SSE 4.6 mph
(SSE 7 kph)
- 10SM
16:53
Clear
82°F / 28°C 63°F / 17°C 51% 29.83 in
(1010 mb)
SW 6.9 mph
(SW 11 kph)
- 10SM
15:53
Clear
82°F / 28°C 63°F / 17°C 51% 29.83 in
(1010 mb)
S 10.4 mph
(S 17 kph)
- 10SM
14:53
Clear
82°F / 28°C 63°F / 17°C 51% 29.83 in
(1010 mb)
SSE 8.1 mph
(SSE 13 kph)
- 10SM
13:53
Clear
81°F / 27°C 61°F / 16°C 51% 29.86 in
(1011 mb)
S 6.9 mph
(S 11 kph)
- 10SM
12:53
Partly Cloudy
81°F / 27°C 63°F / 17°C 54% 29.89 in
(1012 mb)
SSW 5.8 mph
(SSW 9 kph)
- 10SM
11:53
Mostly Cloudy
79°F / 26°C 61°F / 16°C 54% 29.89 in
(1012 mb)
SE 3.5 mph
(SE 6 kph)
- 10SM
10:53
Clear
77°F / 25°C 59°F / 15°C 54% 29.89 in
(1012 mb)
Calm - 10SM
09:53
Partly Cloudy
73°F / 23°C 59°F / 15°C 61% 29.89 in
(1012 mb)
Calm - 10SM
08:53
Clear
70°F / 21°C 61°F / 16°C 73% 29.89 in
(1012 mb)
SE 3.5 mph
(SE 6 kph)
- 10SM
07:53
Clear
63°F / 17°C 59°F / 15°C 88% 29.89 in
(1012 mb)
Calm - 10SM
06:53
Clear
55°F / 13°C 54°F / 12°C 94% 29.89 in
(1012 mb)
Calm - 10SM
05:53
Clear
Fog And Mist
52°F / 11°C 50°F / 10°C 94% 29.86 in
(1011 mb)
Calm - 5SM
05:19
Clear
52°F / 11°C 50°F / 10°C 94% 29.86 in
(1011 mb)
Calm - 10SM
05:12
Clear
Fog And Mist
52°F / 11°C 50°F / 10°C 94% 29.86 in
(1011 mb)
Calm - 2SM
05:09
Clear
Fog And Mist
52°F / 11°C 52°F / 11°C 100% 29.86 in
(1011 mb)
Calm - 1SM
05:01
Clear
Fog And Mist
52°F / 11°C 52°F / 11°C 100% 29.86 in
(1011 mb)
Calm - 1 1/2SM
04:53
Clear
Fog And Mist
52°F / 11°C 50°F / 10°C 94% 29.86 in
(1011 mb)
Calm - 4SM
04:32
Clear
Fog And Mist
52°F / 11°C 52°F / 11°C 100% 29.86 in
(1011 mb)
Calm - 1 3/4SM
04:21
Clear
Fog And Mist
52°F / 11°C 52°F / 11°C 100% 29.86 in
(1011 mb)
Calm - 3SM
04:11
Clear
Fog And Mist
54°F / 12°C 52°F / 11°C 94% 29.86 in
(1011 mb)
Calm - 1 3/4SM
03:53
Clear
Fog And Mist
52°F / 11°C 52°F / 11°C 100% 29.86 in
(1011 mb)
Calm - 5SM
03:19
Partly Cloudy
Fog And Mist
54°F / 12°C 52°F / 11°C 94% 29.86 in
(1011 mb)
Calm - 3SM
03:11
Partly Cloudy
Fog And Mist
54°F / 12°C 52°F / 11°C 94% 29.86 in
(1011 mb)
Calm - 1 3/4SM
02:53
Partly Cloudy
Fog And Mist
54°F / 12°C 52°F / 11°C 94% 29.86 in
(1011 mb)
Calm - 5SM
02:34
Clear
Fog And Mist
55°F / 13°C 54°F / 12°C 94% 29.86 in
(1011 mb)
Calm - 3SM
02:12
Clear
Fog And Mist
54°F / 12°C 54°F / 12°C 100% 29.86 in
(1011 mb)
Calm - 1 3/4SM
01:53
Clear
Fog And Mist
55°F / 13°C 54°F / 12°C 94% 29.86 in
(1011 mb)
Calm - 6SM
00:53
Partly Cloudy
57°F / 14°C 55°F / 13°C 94% 29.89 in
(1012 mb)
E 3.5 mph
(E 6 kph)
- 10SM
Time Weather Temperature Dewpoint Humidity Pressure Winds Precip Visibility


Weather for websites

WeatherForYou.com, LLC is not responsible for any damages or problems caused by this service. Current weather conditions are obtained from the closest station including government and personal stations which may have varying degrees of accuracy. Weather forecasts are derived from the NOAA NDFD. Like all things, this site belongs to Jesus Christ... He just trusts me to maintain it. If you have any questions or comments email webmaster@weatherforyou.com

Copyright © 2014, WeatherForYou.com LLC. All rights reserved.